Tracking 35275 objects as of 8-Sep-2026
HD Live streaming from Space Station
objects crossing your sky now

FALCON 9 DEB


FALCON 9 DEB is no longer on orbit


NORAD ID: 55320
Int'l Code: 2023-010BD
Launch date: January 19, 2023
Source: United States (US)
Launch site: AIR FORCE WESTERN TEST RANGE (AFWTR)
Decay date: 2023-01-31

Note: This is SATELLITE DEBRIS
Your satellite tracking list
Your tracking list is empty




NASA's NSSDC Master Catalog

Two Line Element Set (TLE):
1 55320U 23010BD  23030.10432510  .13573641  44524-5  12734-3 0  9999
2 55320  69.9784  38.5045 0012072 169.6186 190.5302 16.50786546  3375
Source of the keplerian elements: AFSPC